OneWeb SL0150

operational
NORAD ID: 48047 Int'l Des: 2021-025 Owner: ONEWEBN Country: UK Constellation: oneweb
LEOCIRCULARPOLARONEWEB_TYPE

About OneWeb SL0150

Description loading...

Live Position

Loading 3D Globe...

Upcoming Passes

Altitude History

Altitude vs Time

uPlot chart will show altitude changes over time

Two-Line Element Set

1 48047U 21025F 25258.55886848 .00000175 00000-0 44470-3 0 9992
2 48047 87.9040 14.7577 0001962 98.9181 261.2170 13.13470275217493
Epoch: Sep 15, 2025 • Age: 14 hours

Current Status

Altitude 1226.2 km
Velocity 7.24 km/s
Sub-Earth Point -40.86°S, 151.16°E
Launch Date Mar 25, 2021
Age 4.4 years
Type internet

Technical Details

Classification Payload
Mass 148.00 kg
Dry Mass 140.00 kg
Total Mass 148.00 kg
Length 1.30 m
Diameter 1.00 m
Span 5.00 m
Shape Trapezoid+2 pan
Manufacturer ONEWUS
Bus Type ARROW
Phase Status In Orbit
Owner/State ONEWEBN/UK

Large Constellations

Loading constellations...